Timestamp,Temp,Chill,HIndex,Humid,Dewpt,Wind,HiWind,WindDir,Rain,RainRate,Barom,Solar,ET,UV,InsideTemp,InsideHumid
2015-04-21 00:00:00,46,46,46,83,41.1309425352573,2,5,67.5,0,0,30.286,0,0.001,0,62.9,45
2015-04-21 00:05:00,45.9,45.9,45.9,83,41.0331340399785,0,1,0,0,0,30.283,0,0,0,62.7,45
2015-04-21 00:10:00,45.9,45.9,45.9,83,41.0331340399785,0,0,0,0,0,30.286,0,0,0,62.5,45
2015-04-21 00:15:00,45.8,45.8,45.8,83,40.9353250568521,1,5,67.5,0,0,30.286,0,0,0,62.2,46
2015-04-21 00:20:00,45.6,45.6,45.6,83,40.7397056270415,0,1,0,0,0,30.284,0,0,0,62.1,46
2015-04-21 00:25:00,45.6,45.6,45.6,84,41.0488768031043,0,0,0,0,0,30.285,0,0,0,61.6,46
2015-04-21 00:30:00,45.5,45.5,45.5,83,40.6418951803501,0,1,0,0,0,30.289,0,0,0,61.6,47
2015-04-21 00:35:00,45.3,45.3,45.3,83,40.4462728233767,0,4,0,0,0,30.291,0,0,0,62.1,46
2015-04-21 00:40:00,45,45,45,83,40.1528356288854,0,2,0,0,0,30.288,0,0,0,62.5,45
2015-04-21 00:45:00,44.3,44.3,44.3,83,39.4681317657495,2,5,67.5,0,0,30.293,0,0,0,63,45
2015-04-21 00:50:00,44.1,44.1,44.1,84,39.5795936760831,2,6,67.5,0,0,30.289,0,0,0,63.3,44
2015-04-21 00:55:00,43.9,43.9,43.9,83,39.0768616815321,3,7,315,0,0,30.293,0,0,0,63.5,43
2015-04-21 01:00:00,43.8,43.8,43.8,83,38.9790429406851,1,5,315,0,0,30.289,0,0,0,63.5,43
2015-04-21 01:05:00,43.7,43.7,43.7,84,39.1877674568796,0,2,0,0,0,30.29,0,0,0,63.6,42
2015-04-21 01:10:00,43.6,43.6,43.6,84,39.0898097582535,0,3,0,0,0,30.29,0,0,0,63.5,42
2015-04-21 01:15:00,43.6,43.6,43.6,84,39.0898097582535,0,1,0,0,0,30.289,0,0,0,63.5,42
2015-04-21 01:20:00,43.5,43.5,43.5,84,38.991851602091,0,1,0,0,0,30.289,0,0,0,63.3,42
2015-04-21 01:25:00,43.4,43.4,43.4,84,38.8938929883887,1,4,315,0,0,30.29,0,0,0,63.3,42
2015-04-21 01:30:00,43.2,43.2,43.2,84,38.6979743883522,1,4,315,0,0,30.289,0,0,0,63.5,42
2015-04-21 01:35:00,43.1,43.1,43.1,84,38.6000144020115,1,4,315,0,0,30.29,0,0,0,63.5,42
2015-04-21 01:40:00,43.2,43.2,43.2,84,38.6979743883522,0,2,0,0,0,30.288,0,0,0,63.5,42
2015-04-21 01:45:00,43.2,43.2,43.2,84,38.6979743883522,0,2,0,0,0,30.289,0,0,0,63.3,42
2015-04-21 01:50:00,43,43,43,84,38.5020539581184,0,2,0,0,0,30.29,0,0,0,63.3,42
2015-04-21 01:55:00,42.7,42.7,42.7,84,38.2081698810918,2,4,315,0,0,30.29,0,0,0,63.3,41
2015-04-21 02:00:00,42.6,42.6,42.6,84,38.1102076069565,2,5,315,0,0,30.288,0,0,0,63.3,41
2015-04-21 02:05:00,42.5,42.5,42.5,84,38.0122448752526,1,4,315,0,0,30.288,0,0,0,63.2,41
2015-04-21 02:10:00,42.3,42.3,42.3,84,37.8163180391264,1,2,315,0,0,30.286,0,0,0,63.2,41
2015-04-21 02:15:00,42.2,42.2,42.2,84,37.7183539346977,1,4,315,0,0,30.289,0,0,0,63.2,41
2015-04-21 02:20:00,42.2,42.2,42.2,84,37.7183539346977,1,5,315,0,0,30.287,0,0,0,63.2,41
2015-04-21 02:25:00,42.2,42.2,42.2,84,37.7183539346977,0,4,0,0,0,30.29,0,0,0,63.2,41
2015-04-21 02:30:00,42.2,42.2,42.2,84,37.7183539346977,1,4,315,0,0,30.288,0,0,0,63,41
2015-04-21 02:35:00,42.3,42.3,42.3,84,37.8163180391264,2,5,315,0,0,30.287,0,0,0,63,41
2015-04-21 02:40:00,42.4,42.4,42.4,83,37.6095293351086,1,5,315,0,0,30.282,0,0,0,63,40
2015-04-21 02:45:00,42.3,42.3,42.3,83,37.5117032750129,0,2,0,0,0,30.284,0,0,0,63,40
2015-04-21 02:50:00,42.3,42.3,42.3,83,37.5117032750129,1,2,315,0,0,30.283,0,0,0,62.9,40
2015-04-21 02:55:00,42.3,42.3,42.3,83,37.5117032750129,0,2,0,0,0,30.281,0,0,0,62.7,40
2015-04-21 03:00:00,42.2,42.2,42.2,83,37.4138767269381,0,2,0,0,0,30.28,0,0,0,62.5,41
2015-04-21 03:05:00,42.2,42.2,42.2,83,37.4138767269381,0,2,0,0,0,30.28,0,0,0,62.5,41
2015-04-21 03:10:00,42.1,42.1,42.1,83,37.3160496908805,1,5,315,0,0,30.281,0,0,0,62.5,41
2015-04-21 03:15:00,42,42,42,83,37.2182221668365,1,5,315,0,0,30.284,0,0,0,62.5,41
2015-04-21 03:20:00,41.9,41.9,41.9,83,37.1203941548024,2,6,315,0,0,30.283,0,0,0,62.5,41
2015-04-21 03:25:00,41.8,41.8,41.8,83,37.0225656547746,1,4,315,0,0,30.281,0,0,0,62.5,40
2015-04-21 03:30:00,41.6,41.6,41.6,83,36.8269071907232,1,4,315,0,0,30.279,0,0,0,62.5,40
2015-04-21 03:35:00,41.4,41.4,41.4,83,36.631246774653,1,5,315,0,0,30.285,0,0,0,62.4,40
2015-04-21 03:40:00,41.2,41.2,41.2,84,36.7386877229055,1,5,315,0,0,30.284,0,0,0,62.4,40
2015-04-21 03:45:00,41.1,41.1,41.1,84,36.6407185849053,1,5,315,0,0,30.287,0,0,0,62.2,40
2015-04-21 03:50:00,41,41,41,84,36.5427489892884,1,3,315,0,0,30.284,0,0,0,61.8,40
2015-04-21 03:55:00,40.9,40.9,40.9,84,36.4447789360517,2,4,315,0,0,30.286,0,0,0,61.8,41
2015-04-21 04:00:00,40.8,40.8,40.8,84,36.3468084251919,1,4,315,0,0,30.287,0,0,0,61.9,41
2015-04-21 04:05:00,40.7,40.7,40.7,84,36.2488374567059,2,5,315,0,0,30.288,0,0,0,61.8,41
2015-04-21 04:10:00,40.6,40.6,40.6,84,36.1508660305904,1,4,315,0,0,30.289,0,0,0,61.8,41
2015-04-21 04:15:00,40.6,40.6,40.6,84,36.1508660305904,1,4,315,0,0,30.288,0,0,0,61.9,40
2015-04-21 04:20:00,40.5,40.5,40.5,84,36.0528941468422,1,4,315,0,0,30.289,0,0,0,61.9,40
2015-04-21 04:25:00,40.6,40.6,40.6,84,36.1508660305904,1,4,315,0,0,30.288,0,0,0,61.9,40
2015-04-21 04:30:00,40.4,40.4,40.4,84,35.9549218054582,0,3,0,0,0,30.29,0,0,0,61.9,40
2015-04-21 04:35:00,40.4,40.4,40.4,84,35.9549218054582,0,3,0,0,0,30.292,0,0,0,61.8,40
2015-04-21 04:40:00,40.4,40.4,40.4,84,35.9549218054582,2,5,315,0,0,30.295,0,0,0,61.8,40
2015-04-21 04:45:00,40.4,40.4,40.4,84,35.9549218054582,1,5,315,0,0,30.294,0,0,0,61.6,40
2015-04-21 04:50:00,40.3,40.3,40.3,84,35.856949006435,1,3,315,0,0,30.292,0,0,0,61.6,40
2015-04-21 04:55:00,40.3,40.3,40.3,84,35.856949006435,2,5,315,0,0,30.295,0,0,0,61.4,40
2015-04-21 05:00:00,40.5,40.5,40.5,84,36.0528941468422,3,6,315,0,0,30.299,4,0,0,61.4,40
2015-04-21 05:05:00,40.6,40.6,40.6,84,36.1508660305904,2,6,315,0,0,30.301,6,0,0,61.4,40
2015-04-21 05:10:00,40.7,37.2945960296964,40.7,84,36.2488374567059,5,8,315,0,0,30.311,10,0,0,61.4,40
2015-04-21 05:15:00,40.8,40.8,40.8,83,36.0442538140381,3,7,292.5,0,0,30.31,13,0,0,61.3,40
2015-04-21 05:20:00,40.9,40.9,40.9,83,36.142087194204,1,5,315,0,0,30.307,15,0,0,61.3,40
2015-04-21 05:25:00,40.9,40.9,40.9,83,36.142087194204,2,6,315,0,0,30.305,18,0,0,61.1,40
2015-04-21 05:30:00,41,41,41,83,36.2399200863397,1,5,315,0,0,30.309,21,0,0,60.8,40
2015-04-21 05:35:00,40.9,40.9,40.9,83,36.142087194204,1,5,315,0,0,30.309,23,0,0,60.8,40
2015-04-21 05:40:00,40.8,40.8,40.8,82,35.7384628028034,2,5,315,0,0,30.315,25,0,0,60.7,40
2015-04-21 05:45:00,40.8,40.8,40.8,82,35.7384628028034,2,6,292.5,0,0,30.316,33,0,0,60.7,40
2015-04-21 05:50:00,41,41,41,82,35.9338520445382,2,5,292.5,0,0,30.319,42,0,0,60.7,40
2015-04-21 05:55:00,40.9,40.9,40.9,82,35.8361576830082,2,5,292.5,0,0,30.319,62,0,0,60.8,40
2015-04-21 06:00:00,41,41,41,82,35.9338520445382,0,4,0,0,0,30.32,72,0.001,0,61,40
2015-04-21 06:05:00,41.2,41.2,41.2,82,36.1292392115905,1,3,292.5,0,0,30.321,83,0,0,60.8,40
2015-04-21 06:10:00,41.5,41.5,41.5,82,36.4223160722115,1,3,292.5,0,0,30.321,94,0,0,60.8,40
2015-04-21 06:15:00,41.7,41.7,41.7,81,36.3073353888821,3,5,292.5,0,0,30.322,105,0,0.3,60.8,40
2015-04-21 06:20:00,41.9,41.9,41.9,81,36.5024349078741,2,5,292.5,0,0,30.329,121,0,0.5,60.7,40
2015-04-21 06:25:00,42.2,42.2,42.2,81,36.7950800650118,1,5,292.5,0,0,30.324,133,0,0.6,60.5,40
2015-04-21 06:30:00,42.5,42.5,42.5,80,36.772821769663,1,5,292.5,0,0,30.325,144,0,0.6,60.5,41
2015-04-21 06:35:00,42.8,42.8,42.8,80,37.0650313586751,1,4,292.5,0,0,30.326,158,0,0.6,60.5,41
2015-04-21 06:40:00,43.4,43.4,43.4,79,37.3297505670261,1,3,292.5,0,0,30.328,172,0,0.7,60.7,41
2015-04-21 06:45:00,43.7,43.7,43.7,79,37.6215135471912,1,4,292.5,0,0,30.328,186,0,0.7,60.8,41
2015-04-21 06:50:00,44,44,44,78,37.5891231978344,1,4,292.5,0,0,30.328,197,0,0.8,61,41
2015-04-21 06:55:00,44.4,44.4,44.4,78,37.9775431701635,0,2,0,0,0,30.329,211,0,0.8,61,41
2015-04-21 07:00:00,45,45,45,77,38.2308468769768,0,2,0,0,0,30.329,226,0.003,0.8,61.1,41
2015-04-21 07:05:00,45.4,45.4,45.4,76,38.2849539885184,1,4,292.5,0,0,30.33,237,0,0.9,61,41
2015-04-21 07:10:00,46,46,46,75,38.5272486671672,0,2,0,0,0,30.327,249,0,0.9,61.1,41
2015-04-21 07:15:00,46.9,46.9,46.9,74,39.0531563204786,0,1,0,0,0,30.329,263,0,1,61.4,41
2015-04-21 07:20:00,47.7,47.7,47.7,72,39.1223032278997,1,4,292.5,0,0,30.332,277,0,1,61.9,41
2015-04-21 07:25:00,47.7,47.7,47.7,72,39.1223032278997,1,5,292.5,0,0,30.329,291,0,1,62.2,41
2015-04-21 07:30:00,48,48,48,71,39.0524908206868,2,5,292.5,0,0,30.333,305,0,1.1,62.7,40
2015-04-21 07:35:00,48.6,48.6,48.6,71,39.6285288558398,1,5,292.5,0,0,30.331,321,0,1.2,62.9,40
2015-04-21 07:40:00,49.5,49.5,49.5,70,40.1273230730152,2,6,292.5,0,0,30.331,334,0,1.2,63.2,40
2015-04-21 07:45:00,50.2,50.2,50.2,70,40.7981476748553,0,3,0,0,0,30.33,347,0,1.3,63.3,40
2015-04-21 07:50:00,51.4,51.4,51.4,68,41.1973760492086,1,4,337.5,0,0,30.331,361,0,1.3,63.3,40
2015-04-21 07:55:00,51.6,51.6,51.6,66,40.6173023260667,3,6,22.5,0,0,30.33,375,0,1.4,63,41
2015-04-21 08:00:00,51.8,51.8,51.8,67,41.1960041239028,3,6,0,0,0,30.33,389,0.006,1.5,63,41
2015-04-21 08:05:00,52.6,52.6,52.6,66,41.5687634995537,3,7,22.5,0,0,30.332,403,0,1.5,62.9,42
2015-04-21 08:10:00,52.5,52.5,52.5,66,41.4736220791203,4,8,22.5,0,0,30.332,415,0,1.6,62.4,42
2015-04-21 08:15:00,53.1,53.1,53.1,65,41.6485972744298,2,6,45,0,0,30.329,427,0,1.7,62.4,43
2015-04-21 08:20:00,53.3,53.3,53.3,64,41.4369108417418,3,6,22.5,0,0,30.33,439,0,1.8,63.2,42
2015-04-21 08:25:00,53.7,53.7,53.7,64,41.8160515778174,4,6,45,0,0,30.328,454,0,1.8,62.5,43
2015-04-21 08:30:00,54.3,54.3,54.3,64,42.3847292422735,2,7,0,0,0,30.332,463,0,1.9,63.2,43
2015-04-21 08:35:00,55,55,55,62,42.2219819726675,3,6,45,0,0,30.331,474,0,1.9,64,43
2015-04-21 08:40:00,54.9,54.9,54.9,62,42.1275693419034,2,5,22.5,0,0,30.333,486,0,2,64.1,42
2015-04-21 08:45:00,55,55,55,63,42.6379483045285,3,6,22.5,0,0,30.334,499,0,2.1,63.8,42
2015-04-21 08:50:00,55.2,55.2,55.2,62,42.4108036733271,4,8,315,0,0,30.338,506,0,2.2,64.3,43
2015-04-21 08:55:00,55.7,55.7,55.7,62,42.8828371542859,2,7,337.5,0,0,30.339,517,0,2.2,64.9,42
2015-04-21 09:00:00,56.1,56.1,56.1,61,42.8365183152049,3,9,22.5,0,0,30.339,528,0.01,2.3,65.6,42
2015-04-21 09:05:00,56.8,56.8,56.8,61,43.4960059790503,2,6,337.5,0,0,30.338,542,0,2.4,66.2,41
2015-04-21 09:10:00,56.9,56.9,56.9,60,43.1586417377209,3,7,22.5,0,0,30.336,555,0,2.6,66.4,40
2015-04-21 09:15:00,57.4,57.4,57.4,59,43.1898411703546,2,8,67.5,0,0,30.334,568,0,2.6,66.7,40
2015-04-21 09:20:00,57.1,57.1,57.1,59,42.908351069636,3,7,337.5,0,0,30.337,578,0,2.7,67.4,40
2015-04-21 09:25:00,58,58,58,57,42.8526640639257,2,6,337.5,0,0,30.338,587,0,2.8,68,39
2015-04-21 09:30:00,59,59,59,55,42.8546074733966,2,8,67.5,0,0,30.337,597,0,2.9,68.4,38
2015-04-21 09:35:00,58.2,58.2,58.2,55,42.110345558413,4,9,45,0,0,30.337,606,0,2.9,68.7,38
2015-04-21 09:40:00,58.2,58.2,58.2,56,42.5785960334751,2,7,67.5,0,0,30.336,619,0,3.1,69.2,38
2015-04-21 09:45:00,58.6,58.6,58.6,55,42.4824881320615,4,10,45,0,0,30.338,632,0,3.1,69,36
2015-04-21 09:50:00,58.2,58.2,58.2,54,41.6345296136599,4,9,22.5,0,0,30.339,637,0,3.2,68.9,36
2015-04-21 09:55:00,58.5,58.5,58.5,53,41.4287684252308,5,10,22.5,0,0,30.34,649,0,3.4,68.7,36
2015-04-21 10:00:00,58.8,58.8,58.8,51,40.7121838180548,5,10,337.5,0,0,30.341,656,0.013,3.4,69,36
2015-04-21 10:05:00,59.1,59.1,59.1,53,41.9845014005881,4,9,45,0,0,30.343,659,0,3.4,68.5,36
2015-04-21 10:10:00,59.6,59.6,59.6,51,41.4497452763287,3,10,112.5,0,0,30.34,667,0,3.5,68.7,36
2015-04-21 10:15:00,60.1,60.1,60.1,51,41.9106687571501,3,9,45,0,0,30.345,674,0,3.5,68.9,35
2015-04-21 10:20:00,59.6,59.6,59.6,52,41.9528867166892,4,9,22.5,0,0,30.348,682,0,3.7,68.7,35
2015-04-21 10:25:00,59.4,59.4,59.4,52,41.7680816038507,2,6,22.5,0,0,30.347,687,0,3.8,68.5,35
2015-04-21 10:30:00,60.4,60.4,60.4,51,42.1872034893622,2,7,22.5,0,0,30.346,696,0,3.8,68.5,36
2015-04-21 10:35:00,60.3,60.3,60.3,51,42.0950268582161,3,8,0,0,0,30.346,703,0,3.9,68.5,35
2015-04-21 10:40:00,60.7,60.7,60.7,50,41.9494327575226,1,7,315,0,0,30.341,708,0,3.9,68.7,35
2015-04-21 10:45:00,59.8,59.8,59.8,50,41.121772350547,3,8,22.5,0,0,30.342,713,0,3.9,68.9,35
2015-04-21 10:50:00,60.9,60.9,60.9,50,42.133339093586,2,7,315,0,0,30.338,719,0,4.1,69.2,35
2015-04-21 10:55:00,60.5,60.5,60.5,49,41.2425200343396,4,8,90,0,0,30.337,729,0,4.2,69.4,36
2015-04-21 11:00:00,61.1,61.1,61.1,49,41.7929202991911,3,9,90,0,0,30.336,736,0.016,4.1,69.6,35
2015-04-21 11:05:00,61.9,61.9,61.9,47,41.4455076406901,2,6,90,0,0,30.332,738,0,4.2,70.1,36
2015-04-21 11:10:00,62.3,62.3,62.3,47,41.8105449441296,2,8,90,0,0,30.335,744,0,4.3,70.4,35
2015-04-21 11:15:00,61.7,61.7,61.7,48,41.8080792212962,2,9,112.5,0,0,30.33,747,0,4.3,70.6,35
2015-04-21 11:20:00,62.2,62.2,62.2,47,41.7192882906535,3,10,135,0,0,30.333,747,0,4.3,71.1,35
2015-04-21 11:25:00,61.5,61.5,61.5,47,41.0804418298763,2,6,45,0,0,30.335,749,0,4.3,71.4,35
2015-04-21 11:30:00,60.8,60.8,60.8,48,40.9845608508935,1,5,67.5,0,0,30.33,752,0,4.4,71.8,34
2015-04-21 11:35:00,62.6,62.6,62.6,47,42.0843042157536,1,6,90,0,0,30.33,755,0,4.4,71.9,34
2015-04-21 11:40:00,62.8,62.8,62.8,47,42.2668014900208,3,10,112.5,0,0,30.327,761,0,4.6,71.9,33
2015-04-21 11:45:00,61.7,61.7,61.7,47,41.2629782989137,5,10,112.5,0,0,30.331,759,0,4.6,72.3,34
2015-04-21 11:50:00,60.9,60.9,60.9,47,40.5327896550235,5,9,112.5,0,0,30.328,762,0,4.6,72.6,33
2015-04-21 11:55:00,61.1,61.1,61.1,48,41.2590826241565,5,10,135,0,0,30.327,766,0,4.6,73,32
2015-04-21 12:00:00,62.1,62.1,62.1,49,42.7101183778232,2,8,90,0,0,30.325,764,0.017,4.6,73.1,32
2015-04-21 12:05:00,62.2,62.2,62.2,48,42.2655285731204,4,9,112.5,0,0,30.327,764,0,4.6,73.1,33
2015-04-21 12:10:00,61.3,61.3,61.3,49,41.9763734835258,3,9,112.5,0,0,30.328,761,0,4.6,73.5,33
2015-04-21 12:15:00,62.2,62.2,62.2,47,41.7192882906535,4,8,112.5,0,0,30.323,760,0,4.6,73.6,33
2015-04-21 12:20:00,62.4,62.4,62.4,46,41.3447519739732,5,9,45,0,0,30.33,762,0,4.6,73.5,30
2015-04-21 12:25:00,61.4,61.4,61.4,46,40.4344418113639,3,6,22.5,0,0,30.324,760,0,4.6,73.1,30
2015-04-21 12:30:00,62.7,62.7,62.7,44,40.4694824998139,2,8,67.5,0,0,30.323,765,0,4.6,72.6,31
2015-04-21 12:35:00,63.6,63.6,63.6,44,41.2842580152193,2,6,90,0,0,30.321,761,0,4.5,72.6,31
2015-04-21 12:40:00,63.3,63.3,63.3,46,42.1638750634939,3,7,112.5,0,0,30.323,756,0,4.4,72.4,31
2015-04-21 12:45:00,62.9,62.9,62.9,46,41.7998386065559,4,9,45,0,0,30.321,753,0,4.4,72.3,31
2015-04-21 12:50:00,62.7,62.7,62.7,45,41.049271620143,4,8,112.5,0,0,30.325,749,0,4.4,72.3,31
2015-04-21 12:55:00,63.2,63.2,63.2,45,41.503148260257,3,7,90,0,0,30.323,753,0,4.4,72.1,31
2015-04-21 13:00:00,64.2,64.2,64.2,44,41.8273555677303,2,8,90,0,0,30.321,749,0.018,4.4,72.1,31
2015-04-21 13:05:00,63.4,63.4,63.4,43,40.5099631640499,3,8,112.5,0,0,30.322,744,0,4.3,72.1,31
2015-04-21 13:10:00,63.8,63.8,63.8,44,41.4652981873373,1,7,112.5,0,0,30.319,742,0,4.2,72.1,30
2015-04-21 13:15:00,64.5,64.5,64.5,44,42.0988785115739,2,6,67.5,0,0,30.32,735,0,4.1,72.1,31
2015-04-21 13:20:00,64.5,64.5,64.5,44,42.0988785115739,2,5,112.5,0,0,30.319,730,0,4.1,71.9,31
2015-04-21 13:25:00,64.4,64.4,64.4,43,41.4126670786546,3,8,112.5,0,0,30.318,728,0,4,71.8,31
2015-04-21 13:30:00,64.2,64.2,64.2,43,41.232141968904,4,9,45,0,0,30.318,723,0,4,71.8,31
2015-04-21 13:35:00,64.7,64.7,64.7,43,41.683440051756,3,9,0,0,0,30.319,718,0,3.9,71.8,31
2015-04-21 13:40:00,64,64,64,43,41.0516090230784,1,5,22.5,0,0,30.316,714,0,3.8,71.8,31
2015-04-21 13:45:00,64.1,64.1,64.1,42,40.5345814346985,3,7,22.5,0,0,30.316,703,0,3.8,71.8,30
2015-04-21 13:50:00,63.6,63.6,63.6,43,40.6905196211617,3,7,22.5,0,0,30.315,691,0,3.6,71.6,30
2015-04-21 13:55:00,63.6,63.6,63.6,43,40.6905196211617,3,8,67.5,0,0,30.316,696,0,3.6,71.8,32
2015-04-21 14:00:00,63.9,63.9,63.9,43,40.9613396114781,4,8,0,0,0,30.312,694,0.017,3.6,71.8,32
2015-04-21 14:05:00,63.5,63.5,63.5,44,41.1937350584675,4,6,45,0,0,30.314,683,0,3.5,71.4,31
2015-04-21 14:10:00,64.7,64.7,64.7,43,41.683440051756,2,5,90,0,0,30.311,677,0,3.3,71.6,32
2015-04-21 14:15:00,64.2,64.2,64.2,43,41.232141968904,3,8,112.5,0,0,30.309,668,0,3.3,72.1,33
2015-04-21 14:20:00,65,65,65,43,41.9541953965584,2,10,112.5,0,0,30.309,659,0,3.1,72.6,33
2015-04-21 14:25:00,64.5,64.5,64.5,43,41.5029266951612,4,9,135,0,0,30.312,648,0,3.1,73,32
2015-04-21 14:30:00,64.3,64.3,64.3,42,40.7146089506763,2,8,67.5,0,0,30.306,632,0,3,73.1,31
2015-04-21 14:35:00,65,65,65,41,40.7221560229706,2,7,0,0,0,30.305,627,0,2.9,73.5,32
2015-04-21 14:40:00,64.2,64.2,64.2,42,40.6245961953137,5,10,0,0,0,30.304,620,0,2.9,73.5,30
2015-04-21 14:45:00,65.2,65.2,65.2,42,41.5246335236297,1,3,292.5,0,0,30.304,608,0,2.7,73.5,31
2015-04-21 14:50:00,65.8,65.8,65.8,42,42.0645596963653,1,4,315,0,0,30.3,602,0,2.6,73.8,31
2015-04-21 14:55:00,65.9,65.9,65.9,42,42.1545403767978,2,7,90,0,0,30.299,591,0,2.5,74,31
2015-04-21 15:00:00,65.8,65.8,65.8,41,41.4400233810064,3,8,0,0,0,30.297,579,0.015,2.4,74,29
2015-04-21 15:05:00,64.6,64.6,64.6,43,41.5931843528404,4,8,90,0,0,30.307,571,0,2.4,73,30
2015-04-21 15:10:00,64.7,64.7,64.7,43,41.683440051756,3,7,292.5,0,0,30.298,562,0,2.3,73.3,31
2015-04-21 15:15:00,64.5,64.5,64.5,42,40.8946284459119,3,7,0,0,0,30.297,550,0,2.2,73.8,31
2015-04-21 15:20:00,64.2,64.2,64.2,43,41.232141968904,3,7,135,0,0,30.294,539,0,2.1,74,29
2015-04-21 15:25:00,65.4,65.4,65.4,42,41.7046169321578,1,4,22.5,0,0,30.293,528,0,2,74,31
2015-04-21 15:30:00,65.5,65.5,65.5,42,41.7946056297153,2,6,0,0,0,30.296,521,0,2,74.2,30
2015-04-21 15:35:00,65.6,65.6,65.6,42,41.884592322891,3,7,90,0,0,30.289,507,0,1.9,74.3,30
2015-04-21 15:40:00,65.6,65.6,65.6,42,41.884592322891,3,9,90,0,0,30.289,493,0,1.8,74.7,30
2015-04-21 15:45:00,65.3,65.3,65.3,43,42.2249331147832,2,7,90,0,0,30.29,480,0,1.6,74.7,30
2015-04-21 15:50:00,65,65,65,44,42.5513784867361,5,8,112.5,0,0,30.291,469,0,1.6,74.9,30
2015-04-21 15:55:00,65.1,65.1,65.1,44,42.641872742628,1,6,90,0,0,30.288,456,0,1.5,75,30
2015-04-21 16:00:00,65.4,65.4,65.4,44,42.9133440331143,1,6,112.5,0,0,30.287,448,0.013,1.4,75,30
2015-04-21 16:05:00,65.4,65.4,65.4,43,42.3151751041385,2,5,112.5,0,0,30.285,434,0,1.3,75.2,30
2015-04-21 16:10:00,66.1,66.1,66.1,43,42.9468142020927,0,3,0,0,0,30.285,422,0,1.3,75.4,30
2015-04-21 16:15:00,66,66,66,43,42.8565859191744,1,5,45,0,0,30.287,407,0,1.1,75.4,30
2015-04-21 16:20:00,65.6,65.6,65.6,44,43.0943153297205,2,6,67.5,0,0,30.284,398,0,1.1,75.2,30
2015-04-21 16:25:00,65.7,65.7,65.7,44,43.1847981090902,1,7,315,0,0,30.282,381,0,1,75.2,30
2015-04-21 16:30:00,66.2,66.2,66.2,43,43.0370405272035,2,6,90,0,0,30.284,367,0,1,75.2,30
2015-04-21 16:35:00,64.8,64.8,64.8,43,41.7736937919717,5,9,112.5,0,0,30.283,351,0,0.9,75,30
2015-04-21 16:40:00,64.8,64.8,64.8,44,42.3703842359938,2,9,112.5,0,0,30.282,336,0,0.8,75,30
2015-04-21 16:45:00,64.9,64.9,64.9,44,42.4608823178783,1,5,112.5,0,0,30.284,321,0,0.7,75,30
2015-04-21 16:50:00,64.8,64.8,64.8,44,42.3703842359938,2,6,45,0,0,30.283,308,0,0.6,75,30
2015-04-21 16:55:00,64.4,64.4,64.4,45,42.5922615617417,3,6,22.5,0,0,30.282,298,0,0.6,74.9,30
2015-04-21 17:00:00,64.6,64.6,64.6,45,42.7737542848809,1,6,90,0,0,30.282,287,0.009,0.5,74.9,30
2015-04-21 17:05:00,64.7,64.7,64.7,46,43.4377727718925,2,7,112.5,0,0,30.284,276,0,0.2,74.7,30
2015-04-21 17:10:00,64.5,64.5,64.5,46,43.2558092758368,1,4,67.5,0,0,30.284,258,0,0,74.7,30
2015-04-21 17:15:00,64.5,64.5,64.5,45,42.6830088574878,1,6,67.5,0,0,30.283,244,0,0,74.5,30
2015-04-21 17:20:00,64.3,64.3,64.3,46,43.0738384835597,4,9,112.5,0,0,30.288,228,0,0,74.3,30
2015-04-21 17:25:00,64,64,64,47,43.3616355259501,5,8,112.5,0,0,30.287,216,0,0,74.2,31
2015-04-21 17:30:00,63.6,63.6,63.6,47,42.9967193416065,1,6,112.5,0,0,30.286,203,0,0,74.2,31
2015-04-21 17:35:00,63.7,63.7,63.7,47,43.0879510587983,2,7,112.5,0,0,30.285,188,0,0,74,31
2015-04-21 17:40:00,63.6,63.6,63.6,47,42.9967193416065,2,7,45,0,0,30.287,173,0,0,74,31
2015-04-21 17:45:00,63.3,63.3,63.3,48,43.2717641792418,3,8,90,0,0,30.288,157,0,0,73.8,31
2015-04-21 17:50:00,63.1,63.1,63.1,48,43.0888278932189,4,8,90,0,0,30.291,143,0,0,73.6,31
2015-04-21 17:55:00,63.1,63.1,63.1,48,43.0888278932189,2,7,90,0,0,30.289,130,0,0,73.5,31
2015-04-21 18:00:00,62.9,62.9,62.9,48,42.9058846554971,1,5,90,0,0,30.287,118,0.006,0,73.5,31
2015-04-21 18:05:00,62.8,62.8,62.8,48,42.8144104296252,3,7,112.5,0,0,30.289,106,0,0,73.5,31
2015-04-21 18:10:00,62.7,62.7,62.7,48,42.7229344656801,2,5,90,0,0,30.291,94,0,0,73.3,31
2015-04-21 18:15:00,62.5,62.5,62.5,48,42.5399773233716,3,8,112.5,0,0,30.289,82,0,0,73.3,31
2015-04-21 18:20:00,62.3,62.3,62.3,48,42.3570132281754,3,12,112.5,0,0,30.292,70,0,0,73.3,31
2015-04-21 18:25:00,61.1,61.1,61.1,51,42.8323947494465,5,12,112.5,0,0,30.293,60,0,0,73.1,32
2015-04-21 18:30:00,60,60,60,52,42.3224780775039,9,14,90,0,0,30.296,51,0,0,72.4,32
2015-04-21 18:35:00,59.1,59.1,59.1,54,42.4699977086084,7,12,112.5,0,0,30.299,43,0,0,72.1,33
2015-04-21 18:40:00,59,59,59,55,42.8546074733966,7,12,112.5,0,0,30.294,33,0,0,71.8,33
2015-04-21 18:45:00,58.5,58.5,58.5,55,42.3894546667638,5,9,90,0,0,30.295,25,0,0,71.4,33
2015-04-21 18:50:00,58.2,58.2,58.2,56,42.5785960334751,5,12,90,0,0,30.299,21,0,0,71.4,34
2015-04-21 18:55:00,57.9,57.9,57.9,56,42.2988768873477,6,13,112.5,0,0,30.302,18,0,0,71.4,34
2015-04-21 19:00:00,57.6,57.6,57.6,56,42.019145024159,6,13,112.5,0,0,30.302,14,0.003,0,71.4,34
2015-04-21 19:05:00,57.2,57.2,57.2,57,42.1051281523832,6,12,90,0,0,30.303,12,0,0,71.2,34
2015-04-21 19:10:00,56.9,56.9,56.9,57,41.8247795086601,6,11,90,0,0,30.305,9,0,0,71.1,34
2015-04-21 19:15:00,56.7,56.7,56.7,57,41.6378735404013,7,12,112.5,0,0,30.309,6,0,0,70.7,34
2015-04-21 19:20:00,56.3,56.3,56.3,58,41.7142451460183,7,12,112.5,0,0,30.31,3,0,0,70.4,34
2015-04-21 19:25:00,56,56,56,58,41.4332817303119,5,9,112.5,0,0,30.311,0,0,0,70.1,34
2015-04-21 19:30:00,55.8,55.8,55.8,59,41.6884256258378,4,11,112.5,0,0,30.31,0,0,0,69.9,35
2015-04-21 19:35:00,55.4,55.4,55.4,59,41.3130198076978,4,8,112.5,0,0,30.31,0,0,0,69.6,35
2015-04-21 19:40:00,55.1,55.1,55.1,61,41.8942890787547,6,10,112.5,0,0,30.317,0,0,0,69.4,35
2015-04-21 19:45:00,54.8,54.8,54.8,59,40.7498721244742,3,10,90,0,0,30.318,0,0,0,69.2,35
2015-04-21 19:50:00,54.6,54.6,54.6,60,40.995800603154,4,9,112.5,0,0,30.315,0,0,0,69,35
2015-04-21 19:55:00,54.3,54.3,54.3,60,40.7136417131064,4,9,112.5,0,0,30.322,0,0,0,69,35
2015-04-21 20:00:00,54.1,54.1,54.1,60,40.525529480501,3,10,112.5,0,0,30.317,0,0.002,0,68.9,35
2015-04-21 20:05:00,53.9,53.9,53.9,60,40.3374122029331,5,10,112.5,0,0,30.32,0,0,0,68.5,35
2015-04-21 20:10:00,53.7,53.7,53.7,61,40.5749625486858,2,5,112.5,0,0,30.321,0,0,0,68.4,35
2015-04-21 20:15:00,53.5,53.5,53.5,60,39.9611625120984,4,11,112.5,0,0,30.324,0,0,0,68,35
2015-04-21 20:20:00,53.3,53.3,53.3,60,39.7730300984255,4,9,112.5,0,0,30.323,0,0,0,67.7,35
2015-04-21 20:25:00,53.1,53.1,53.1,60,39.5848926389784,3,7,112.5,0,0,30.325,0,0,0,67.5,35
2015-04-21 20:30:00,53,53,53,60,39.490822017026,4,9,90,0,0,30.323,0,0,0,67.2,35
2015-04-21 20:35:00,52.8,52.8,52.8,60,39.3026769885368,4,9,90,0,0,30.327,0,0,0,67,35
2015-04-21 20:40:00,52.6,52.6,52.6,61,39.5381805352155,5,8,90,0,0,30.33,0,0,0,66.7,36
2015-04-21 20:45:00,52.4,52.4,52.4,61,39.3496587987282,2,6,90,0,0,30.332,0,0,0,66.6,36
2015-04-21 20:50:00,52.3,52.3,52.3,61,39.2553960938727,2,5,90,0,0,30.334,0,0,0,66.6,36
2015-04-21 20:55:00,52.1,52.1,52.1,61,39.0668670108183,3,7,90,0,0,30.334,0,0,0,66.4,36
2015-04-21 21:00:00,51.9,51.9,51.9,62,39.2946383697975,4,8,90,0,0,30.336,0,0.002,0,66.2,36
2015-04-21 21:05:00,51.8,51.8,51.8,62,39.2001889320523,3,5,90,0,0,30.335,0,0,0,66.1,36
2015-04-21 21:10:00,51.6,51.6,51.6,62,39.0112864934986,3,6,112.5,0,0,30.337,0,0,0,65.9,36
2015-04-21 21:15:00,51.5,51.5,51.5,62,38.9168334926453,1,5,112.5,0,0,30.34,0,0,0,65.6,36
2015-04-21 21:20:00,51.4,51.4,51.4,63,39.231911706344,2,5,112.5,0,0,30.337,0,0,0,65.3,36
2015-04-21 21:25:00,51.3,51.3,51.3,63,39.137278284805,1,4,112.5,0,0,30.339,0,0,0,64.9,37
2015-04-21 21:30:00,51.2,51.2,51.2,63,39.0426437119831,2,5,112.5,0,0,30.338,0,0,0,64.9,37
2015-04-21 21:35:00,50.9,50.9,50.9,63,38.7587330856098,3,7,112.5,0,0,30.336,0,0,0,65.1,37
2015-04-21 21:40:00,50.7,50.7,50.7,63,38.5694535778946,3,7,112.5,0,0,30.337,0,0,0,64.9,37
2015-04-21 21:45:00,50.6,50.6,50.6,63,38.474812096934,3,8,112.5,0,0,30.336,0,0,0,64.6,37
2015-04-21 21:50:00,50.5,50.5,50.5,63,38.3801694645435,2,7,112.5,0,0,30.335,0,0,0,64.9,37
2015-04-21 21:55:00,50.4,50.4,50.4,63,38.285525680702,2,5,90,0,0,30.336,0,0,0,64.9,37
2015-04-21 22:00:00,50.2,50.2,50.2,63,38.0962346585819,2,6,90,0,0,30.337,0,0.001,0,64.6,37
2015-04-21 22:05:00,50.1,50.1,50.1,63,38.0015874202613,2,6,90,0,0,30.34,0,0,0,64.6,37